ANA105 KLAX-RJTT

Flight info

Callsign ANA105
Flight time N/A
Altitude 34000
Route SUMMR2 MCKEY DCT LIBBO DCT RAINS DCT SHENU/N0485F360 DCT 41N130W 45N140W 47N150W 48N160W/N0487F380 49N170W 50N180E DCT CARTO DCT CUTEE/N0492F400 DCT KALIG KALNA OTR5 ADNAP Y807 LALID Y804 INUBO Y108 MESSE
Aircraft B77W/H-SDE1E2E3FGHIJ2J3J4J5M1RWXY/LB1D1

Departure

Time 2026-04-22 17:12
Airport Los Angeles International Airport (KLAX)

Arrival

Time N/A
Airport Tokyo Haneda International Airport (RJTT)
Time Latitude Longitude Altitude Speed Heading
2026-04-22 16:29 33.94155 -118.40942 130 ft 0 kts 263°
2026-04-22 17:00 33.94157 -118.40922 130 ft 2 kts 264°
2026-04-22 17:01 33.94159 -118.40904 130 ft 2 kts 263°
2026-04-22 17:01 33.94161 -118.40887 130 ft 2 kts 263°
2026-04-22 17:01 33.94163 -118.40868 130 ft 1 kts 263°
2026-04-22 17:01 33.94164 -118.40858 130 ft 1 kts 244°
2026-04-22 17:02 33.94173 -118.40848 130 ft 1 kts 185°
2026-04-22 17:02 33.94181 -118.40848 129 ft 1 kts 172°
2026-04-22 17:02 33.94182 -118.40848 129 ft 0 kts 172°
2026-04-22 17:05 33.94178 -118.40848 129 ft 2 kts 172°
2026-04-22 17:05 33.94132 -118.40841 130 ft 12 kts 175°
2026-04-22 17:06 33.94010 -118.40824 133 ft 17 kts 173°
2026-04-22 17:06 33.93991 -118.40822 133 ft 0 kts 173°
2026-04-22 17:06 33.93960 -118.40817 133 ft 9 kts 173°
2026-04-22 17:06 33.93874 -118.40771 133 ft 15 kts 148°
2026-04-22 17:07 33.93814 -118.40673 133 ft 14 kts 100°
2026-04-22 17:07 33.93824 -118.40552 131 ft 15 kts 83°
2026-04-22 17:07 33.93837 -118.40416 128 ft 17 kts 83°
2026-04-22 17:07 33.93852 -118.40266 126 ft 18 kts 83°
2026-04-22 17:08 33.93867 -118.40114 125 ft 18 kts 83°
2026-04-22 17:08 33.93883 -118.39953 122 ft 20 kts 83°
2026-04-22 17:08 33.93903 -118.39771 119 ft 24 kts 83°
2026-04-22 17:08 33.93928 -118.39537 117 ft 29 kts 84°
2026-04-22 17:09 33.93951 -118.39297 113 ft 27 kts 82°
2026-04-22 17:09 33.93975 -118.39068 111 ft 30 kts 83°
2026-04-22 17:09 33.93993 -118.38893 110 ft 31 kts 83°
2026-04-22 17:09 33.94024 -118.38580 110 ft 26 kts 83°
2026-04-22 17:10 33.94046 -118.38368 107 ft 24 kts 83°
2026-04-22 17:10 33.94066 -118.38175 107 ft 21 kts 83°
2026-04-22 17:10 33.94073 -118.38046 107 ft 1 kts 111°
2026-04-22 17:10 33.94072 -118.38042 107 ft 2 kts 115°
2026-04-22 17:11 33.94030 -118.38007 107 ft 14 kts 166°
2026-04-22 17:11 33.93976 -118.38049 107 ft 0 kts 265°
2026-04-22 17:11 33.93973 -118.38082 107 ft 13 kts 265°
2026-04-22 17:11 33.93942 -118.38451 109 ft 75 kts 265°
2026-04-22 17:12 33.93856 -118.39318 114 ft 131 kts 263°
2026-04-22 17:12 33.93715 -118.40616 134 ft 177 kts 263°
2026-04-22 17:12 33.93549 -118.42136 505 ft 190 kts 263°
2026-04-22 17:12 33.93368 -118.43757 1142 ft 197 kts 263°
2026-04-22 17:13 33.93218 -118.45393 1609 ft 205 kts 264°
2026-04-22 17:13 33.93076 -118.47173 1873 ft 220 kts 264°
2026-04-22 17:13 33.92920 -118.49027 2359 ft 224 kts 265°
2026-04-22 17:13 33.92767 -118.50874 2975 ft 223 kts 265°
2026-04-22 17:14 33.92609 -118.52788 3376 ft 236 kts 264°
2026-04-22 17:14 33.92444 -118.54787 3871 ft 244 kts 265°
2026-04-22 17:14 33.92274 -118.56827 4343 ft 254 kts 265°
2026-04-22 17:14 33.92098 -118.58958 4998 ft 257 kts 266°
2026-04-22 17:15 33.91980 -118.60383 5463 ft 257 kts 266°
2026-04-22 17:15 33.91778 -118.63234 6370 ft 258 kts 271°
2026-04-22 17:15 33.91760 -118.65397 7028 ft 260 kts 271°
2026-04-22 17:15 33.91758 -118.67551 7718 ft 260 kts 271°
2026-04-22 17:16 33.91753 -118.69712 8364 ft 261 kts 271°
2026-04-22 17:16 33.91746 -118.71886 9007 ft 262 kts 271°
2026-04-22 17:16 33.91737 -118.74085 9643 ft 262 kts 271°
2026-04-22 17:16 33.91728 -118.76276 10250 ft 264 kts 271°
2026-04-22 17:17 33.91718 -118.78492 10770 ft 269 kts 270°
2026-04-22 17:17 33.91708 -118.80777 11116 ft 282 kts 270°
2026-04-22 17:17 33.91697 -118.83211 11379 ft 298 kts 270°
2026-04-22 17:17 33.91740 -118.85786 11628 ft 315 kts 272°
2026-04-22 17:18 33.91836 -118.88457 11907 ft 331 kts 272°
2026-04-22 17:18 33.91931 -118.91298 12203 ft 346 kts 272°
2026-04-22 17:18 33.92022 -118.94229 12590 ft 359 kts 272°
2026-04-22 17:18 33.92117 -118.97275 13160 ft 365 kts 274°
2026-04-22 17:19 33.93255 -119.03185 14655 ft 369 kts 291°
2026-04-22 17:19 33.95826 -119.08658 15922 ft 379 kts 299°
2026-04-22 17:20 33.98642 -119.14092 17104 ft 387 kts 298°
2026-04-22 17:20 34.01981 -119.19267 18261 ft 401 kts 311°
2026-04-22 17:21 34.04146 -119.21403 18743 ft 411 kts 319°
2026-04-22 17:21 34.08870 -119.25443 19881 ft 418 kts 319°
2026-04-22 17:22 34.13646 -119.29533 20873 ft 427 kts 319°
2026-04-22 17:22 34.16081 -119.31626 21229 ft 434 kts 318°
2026-04-22 17:22 34.21037 -119.35892 22287 ft 439 kts 318°
2026-04-22 17:23 34.23521 -119.38033 22812 ft 440 kts 318°
2026-04-22 17:23 34.28542 -119.42370 23680 ft 448 kts 318°
2026-04-22 17:23 34.31119 -119.44599 24101 ft 452 kts 318°
2026-04-22 17:24 34.33672 -119.46808 24631 ft 453 kts 318°
2026-04-22 17:24 34.36229 -119.49022 25128 ft 455 kts 318°
2026-04-22 17:24 34.38824 -119.51274 25543 ft 459 kts 317°
2026-04-22 17:24 34.41275 -119.53728 25906 ft 456 kts 310°
2026-04-22 17:25 34.43433 -119.56544 26270 ft 456 kts 305°
2026-04-22 17:25 34.45495 -119.59457 26794 ft 456 kts 305°
2026-04-22 17:25 34.47559 -119.62383 27371 ft 456 kts 305°
2026-04-22 17:25 34.49630 -119.65324 27807 ft 458 kts 304°
2026-04-22 17:26 34.51715 -119.68288 28209 ft 461 kts 304°
2026-04-22 17:26 34.53803 -119.71258 28647 ft 463 kts 304°
2026-04-22 17:26 34.55864 -119.74190 29081 ft 465 kts 304°
2026-04-22 17:26 34.57990 -119.77218 29452 ft 468 kts 304°
2026-04-22 17:27 34.59399 -119.79227 29724 ft 468 kts 304°
2026-04-22 17:27 34.62185 -119.83197 30404 ft 465 kts 304°
2026-04-22 17:27 34.64276 -119.86181 31005 ft 461 kts 304°
2026-04-22 17:27 34.66339 -119.89125 31553 ft 458 kts 304°
2026-04-22 17:28 34.68400 -119.92072 32006 ft 456 kts 304°
2026-04-22 17:28 34.70462 -119.95024 32417 ft 455 kts 303°
2026-04-22 17:28 34.72510 -119.97958 32748 ft 455 kts 303°